SCP
0 -0 -0 -0 0 0 0 0 0 0 0 0 -0 -0 -0 0 -0 0 0 0 0 0 0 0 0 0 0 0 0 0 0 0 0 0 0 0 0 0 0 0 0 0 0 0 0 0 0 0 0 0 0 0 0 0
0 0 -0 -0 0 -0 0 0 0 0 -0 -0 0 -0 -0 0 0 0 0 0 0 0 0 0 0 0 0 0 0 0 0 0 0 0 0 0 0 0 0 0 0 0 0 0 0 0 0 0 0 0 0 0 0 0
0 0 0 0 0 -0 0 0 0 0 -0 -0 -0 -0 -0 -0 0 0 0 0 0 0 0 0 0 0 0 0 0 0 0 0 0 0 0 0 0 0 0 0 0 0 0 0 0 0 0 0 0 0 0 0 0 0
0 -0 -0 0 -0 -0 0 0 0 0 0 -0 -0 -0 -0 -0 0 0 0 0 0 0 0 0 0 0 0 0 0 0 0 0 0 0 0 0 0 0 0 0 0 0 0 0 0 0 0 0 0 0 0 0 0 0
0 -0 -0 -0 0 -0 0 0 0 0 0 -0 -0 -0 -0 0 0 0 0 0 0 0 0 0 0 0 0 0 0 0 0 0 0 0 0 0 0 0 0 0 0 0 0 0 0 0 0 0 0 0 0 0 0 0
0 0 -0 -0 0 0 -0 0 0 0 0 -0 -0 -0 -0 0 0 0 0 0 0 0 0 0 0 0 0 -0 0 0 0 0 0 0 0 0 0 0 0 0 0 0 0 0 0 0 0 0 0 0 0 0 0 0
0 0 -0 -0 -0 -0 0 0 0 -0 0 -0 -0 -0 0 0 0 0 0 0 0 0 0 0 0 0 0 0 0 0 0 0 0 0 0 0 0 0 0 0 0 0 0 0 0 0 0 0 0 0 0 0 0 0
0 0 0 0 -0 -0 0 0 0 -0 -0 -0 -0 -0 0 0 0 0 0 0 0 0 0 0 0 0 0 0 0 0 0 0 0 0 0 0 0 0 0 0 0 0 0 0 -0 0 0 0 0 0 0 0 0 0
0 0 0 0 0 0 0 0 0 -0 -0 -0 -0 0 0 0 0 0 0 0 0 0 0 0 0 0 0 0 0 0 0 0 0 0 0 0 0 0 0 0 0 0 0 0 0 0 0 0 0 0 0 0 0 0
0 0 0 0 0 0 0 -0 -0 -0 -0 -0 0 0 0 0 0 -0 0 0 0 0 0 0 0 0 0 0 0 0 0 0 0 0 0 0 0 -0 -0 -0 0 0 0 0 0 0 0 0 0 0 0 0 0 0
0 0 0 0 -0 -0 -0 -0 0 0 -0 0 0 0 0 0 0 0 0 0 0 0 0 0 0 0 0 0 0 0 0 0 0 0 0 0 -0 -0 -0 -0 -0 -0 0 0 0 0 0 0 0 0 0 0 0 0
0 0 0 -0 -0 -0 -0 -0 -0 -0 0 0 0 0 0 0 0 0 0 0 0 0 0 0 0 0 0 0 0 0 0 0 0 0 0 -0 -0 -0 -0 0 0 -0 -0 0 -0 0 0 0 0 0 0 0 -0 0
0 0 0 0 -0 -0 -0 0 -0 0 0 0 0 0 0 0 0 0 0 0 0 0 0 0 0 0 0 0 0 0 0 0 0 -0 -0 -0 -0 -0 -0 -0 -0 -0 -0 0 -0 0 0 0 0 0 0 0 0 0
0 0 0 0 -0 -0 -0 -0 -0 -0 0 0 0 0 0 0 0 0 0 0 0 0 0 0 0 0 0 0 0 0 0 0 0 0 0 -0 -0 -0 -0 -0 -0 -0 -0 -0 0 -0 0 0 0 0 0 0 0 0
0 0 0 0 -0 -0 -0 0 -0 0 0 0 0 0 0 0 0 0 0 0 0 0 0 0 0 0 0 0 0 0 0 0 0 0 0 0 0 0 0 -0 -0 0 0 0 0 0 0 0 0 0 0 0 0 0
0 -0 -0 -0 -0 -0 -0 0 0 0 0 0 0 0 0 0 0 0 0 0 0 0 0 0 0 0 0 0 0 0 0 0 0 0 0 0 0 0 0 0 0 0 0 0 0 0 0 0 0 0 0 0 0 0
-0 -0 0 0 0 -0 -0 0 0 0 0 0 0 0 0 0 0 0 0 0 0 0 0 0 0 0 0 0 0 0 0 0 0 0 0 0 0 0 0 0 0 0 -0 -0 -0 -0 -0 -0 0 0 0 0 0 0
0 0 0 -0 0 0 0 0 0 0 0 0 0 0 0 0 0 0 0 0 0 0 0 0 0 0 0 0 0 0 0 0 0 0 0 0 0 0 0 0 0 0 0 0 -0 -0 -0 0 0 0 0 0 0 0
0 -0 -0 -0 0 0 0 0 0 0 0 0 0 0 0 0 0 0 0 0 0 0 0 0 0 0 0 0 0 0 0 0 0 0 0 0 0 0 0 0 0 0 0 0 -0 -0 0 -0 -0 -0 -0 0 0 0
-0 -0 -0 -0 0 -0 0 0 0 0 0 0 0 0 0 0 0 0 0 0 0 0 0 0 0 0 0 0 0 0 0 0 0 0 0 0 0 0 0 0 0 0 0 0 0 -0 -0 -0 -0 -0 0 0 -0 0
0 0 0 0 0 0 0 0 0 0 0 0 0 0 0 0 0 0 0 0 0 0 0 0 0 0 0 0 0 0 0 0 0 0 0 0 0 0 0 0 0 0 0 0 0 0 -0 -0 0 0 -0 -0 0 0
0 0 0 0 0 0 0 0 0 0 0 0 0 0 0 0 0 0 0 0 0 0 0 0 0 0 0 0 0 0 0 0 0 0 0 0 0 0 0 0 0 0 0 0 0 0 0 0 0 0 0 0 0 0
0 -0 0 0 0 0 0 0 0 0 0 0 0 0 0 0 0 0 0 0 0 0 0 0 0 0 0 0 0 0 0 0 0 0 0 0 0 0 0 0 0 0 0 0 0 0 0 0 0 0 0 0 0 0
0 0 0 0 0 0 0 0 0 0 0 0 0 0 0 0 0 0 0 0 0 0 0 0 0 0 0 0 0 0 0 0 0 0 0 0 0 0 0 0 0 0 0 0 0 0 0 0 0 0 0 0 0 0
0 0 0 0 0 0 0 0 0 0 0 0 0 0 0 0 0 0 0 0 0 0 0 0 0 0 0 0 0 0 0 0 0 0 0 0 0 0 0 0 0 0 0 0 0 0 0 0 0 0 0 0 0 0
0 0 0 0 0 0 0 0 0 0 0 0 0 0 0 0 0 0 0 0 0 0 0 0 0 0 0 0 0 0 0 0 0 0 0 0 0 0 0 0 0 0 0 0 0 0 0 0 0 0 0 0 0 -0
0 0 0 0 0 0 0 0 -0 0 0 0 0 0 0 0 0 0 0 0 0 0 0 0 0 0 0 0 0 0 0 0 0 0 0 -0 0 -0 -0 -0 -0 -0 0 0 0 0 0 -0 -0 -0 -0 -0 0 0
0 0 0 0 0 0 0 0 0 0 0 0 0 0 0 0 0 0 0 0 0 0 0 0 0 0 0 0 0 0 0 0 0 0 0 0 0 0 0 -0 -0 -0 -0 0 0 0 0 0 0 0 0 0 0 0
0 0 0 0 0 0 0 0 0 0 0 0 0 0 0 0 0 0 0 0 0 0 0 0 0 0 0 0 0 0 0 0 0 0 0 0 0 0 0 0 0 0 0 0 0 0 0 0 0 0 0 0 0 0
0 0 0 0 0 -0 0 0 0 0 0 0 -0 0 0 0 0 0 0 0 0 0 0 0 0 0 0 0 0 0 0 0 0 0 0 0 0 0 0 0 0 0 0 0 0 0 0 0 0 0 0 0 0 0
0 0 0 0 0 0 0 0 -0 -0 -0 0 0 0 0 0 0 0 0 0 0 0 0 0 0 0 0 0 0 0 0 0 0 0 0 0 0 0 0 0 0 0 0 0 0 0 0 0 0 0 0 0 0 0
0 0 0 0 0 0 0 0 0 0 0 0 0 0 0 0 0 0 0 0 0 0 0 0 0 0 0 0 0 0 0 0 0 0 0 0 0 0 0 0 0 0 0 0 0 0 0 0 0 0 0 0 0 0
0 0 0 0 0 0 0 0 0 0 0 0 0 0 0 0 0 0 0 0 0 0 0 0 0 0 0 0 0 0 0 0 0 0 0 0 0 0 0 0 0 0 0 0 0 0 0 0 0 0 0 0 0 0
Wind_Speed_500mb
54 56 60 62 65 67 68 67 68 69 68 69 74 76 78 70 57 43 26 16 14 15 43 47 13 17 38 12 7 4 6 5 6 4 6 8 4 4 4 2 6 9 7 7 1 2 12 19 24 15 15 21 35 26
53 56 59 62 65 67 68 68 70 73 73 70 74 76 78 71 57 45 30 16 26 31 38 48 54 49 40 38 28 15 9 9 13 6 3 3 2 2 8 5 3 4 14 9 14 12 11 26 28 35 31 31 33 29
52 55 58 62 65 68 70 71 74 78 77 73 77 76 76 64 57 44 31 19 15 18 43 21 12 11 23 33 51 22 8 8 8 4 12 6 5 7 4 9 7 7 11 7 4 9 14 19 20 23 30 36 26 32
54 56 58 61 64 67 70 72 77 81 82 75 78 77 70 54 50 35 25 11 11 10 8 14 29 46 28 15 27 39 34 23 14 10 4 5 5 13 8 10 9 11 6 10 10 11 25 34 39 38 46 40 38 33
55 57 60 60 63 67 70 73 78 84 86 81 78 77 62 44 39 20 12 4 1 7 8 28 47 31 20 19 28 37 34 28 17 8 4 7 8 2 6 2 7 12 12 8 13 26 28 46 53 35 50 48 49 48
55 57 60 62 63 68 71 74 80 85 89 86 78 72 48 33 26 4 5 7 9 13 11 8 35 41 31 18 22 39 36 33 32 17 13 13 20 13 2 4 7 25 55 44 32 51 49 43 35 41 42 48 47 57
54 56 58 60 63 68 73 76 81 88 91 89 79 56 35 20 12 6 4 3 10 16 8 12 17 14 45 39 37 35 41 21 25 5 15 18 15 16 5 6 52 50 63 68 67 56 28 34 43 50 39 39 45 48
53 53 55 58 63 68 73 77 81 88 91 93 75 42 20 1 5 5 1 6 16 17 5 2 8 24 40 11 10 11 19 9 12 17 14 7 1 14 7 39 58 57 71 73 68 36 39 34 38 33 34 31 51 59
53 53 54 58 62 66 71 76 80 87 90 94 62 21 7 3 6 9 31 31 20 9 4 3 4 5 16 8 9 8 7 5 8 6 8 8 11 9 16 45 53 59 41 55 62 40 21 20 29 40 45 39 48 51
54 55 58 61 62 64 69 74 79 82 89 86 46 14 3 8 38 18 1 2 4 3 3 7 9 8 12 9 7 6 6 4 4 6 5 9 3 10 23 46 48 53 61 54 61 66 62 56 33 23 46 42 41 40
56 56 59 61 61 61 65 70 73 77 85 71 41 13 36 27 8 3 0 6 7 0 7 9 17 11 28 7 6 1 3 2 4 6 7 1 2 26 54 54 59 52 51 58 50 42 41 36 37 28 16 47 38 39
57 58 60 61 61 61 62 64 61 68 66 69 48 42 22 9 5 3 4 3 6 2 7 7 28 45 13 4 6 11 4 3 3 14 5 5 6 47 56 62 61 58 55 47 54 58 53 55 38 31 31 16 38 34
57 60 62 60 63 63 57 53 54 63 68 47 9 8 5 4 8 5 6 7 5 7 13 34 24 19 3 10 10 7 12 8 6 5 2 5 34 53 64 66 62 56 57 52 63 62 60 56 43 29 26 27 9 36
65 66 65 59 61 58 51 57 56 60 44 8 6 11 6 7 1 4 5 6 7 13 27 36 23 12 14 9 9 7 4 6 6 8 6 8 52 61 64 57 59 61 57 61 63 66 51 45 42 31 27 17 21 16
54 59 59 56 54 56 56 59 51 43 9 8 7 6 7 7 9 5 6 10 10 22 34 22 8 13 12 9 7 7 11 8 5 6 8 43 44 61 65 66 65 65 65 57 52 57 54 49 42 36 24 48 38 27
55 57 52 50 58 61 52 52 34 5 5 7 11 8 9 9 12 10 12 15 21 30 18 12 9 8 9 4 7 7 4 4 7 10 39 38 60 59 61 62 66 62 62 56 57 49 54 36 32 28 28 25 33 16
48 47 50 49 56 52 42 30 3 7 8 9 12 15 36 6 2 8 9 11 22 16 5 8 8 1 3 5 4 5 6 6 19 32 30 43 44 55 60 66 74 68 63 43 62 41 40 37 26 12 9 4 16 19
52 48 49 41 47 47 21 3 5 8 10 14 10 9 2 2 5 8 9 16 10 6 4 5 4 7 2 3 6 5 15 8 23 20 28 38 45 55 59 69 70 64 64 70 51 26 36 41 40 33 30 12 13 10
53 53 43 19 24 30 11 4 7 8 11 17 18 14 9 4 6 16 18 17 18 16 18 7 7 2 3 3 7 7 7 18 18 19 30 39 46 51 54 60 64 58 60 63 68 37 27 39 38 36 40 18 14 18
41 37 13 10 18 10 9 12 7 10 9 7 19 10 12 11 21 22 16 14 13 8 8 4 7 4 5 7 11 6 12 14 14 23 38 44 46 47 48 52 54 55 58 61 66 55 34 40 41 36 43 42 37 35
32 10 19 11 13 12 11 9 10 11 16 11 17 15 17 8 29 19 15 10 7 4 5 3 1 5 12 13 4 7 16 8 12 22 31 38 39 42 43 50 48 54 55 55 56 60 54 50 40 35 33 35 31 28
20 19 20 4 6 8 13 13 13 22 13 15 17 11 10 14 17 15 12 5 7 7 7 2 6 8 17 10 5 7 13 7 10 15 26 26 35 40 43 48 52 54 56 50 46 45 42 38 38 34 33 33 30 30
13 13 11 7 8 8 14 13 9 9 6 7 4 4 3 6 8 21 5 7 9 12 7 5 10 9 20 14 5 8 15 14 11 18 24 19 25 30 36 42 47 54 60 61 55 54 53 49 45 45 47 50 51 55
16 8 6 6 10 10 11 9 13 11 8 6 4 3 6 12 22 7 4 10 16 17 14 6 6 27 24 20 7 10 11 11 13 20 18 16 25 31 37 37 39 41 48 52 60 60 58 58 57 59 61 64 65 66
8 9 7 11 9 9 8 8 10 6 6 3 6 8 4 8 3 3 7 17 24 20 16 14 15 11 17 15 4 11 11 11 11 11 16 16 18 21 30 33 39 43 43 43 45 46 50 57 63 65 69 71 71 70
4 9 13 9 11 11 8 5 6 9 8 4 6 4 6 6 4 5 7 27 28 26 27 21 17 12 17 5 4 8 3 3 14 25 30 31 34 36 28 28 31 35 34 34 36 42 43 44 48 49 51 54 54 57
7 11 16 18 16 22 13 12 9 8 6 4 2 2 4 5 6 6 16 20 20 22 19 18 17 16 11 9 4 9 13 20 23 26 31 36 36 42 46 45 43 39 35 43 46 47 50 53 53 50 48 47 43 36
16 12 10 19 22 21 11 9 4 4 2 8 16 3 4 4 8 14 15 21 18 18 15 13 12 15 9 9 6 7 11 13 14 12 10 10 9 13 24 32 36 36 32 29 26 26 23 19 26 32 33 38 37 29
14 18 19 26 24 11 8 9 8 6 19 20 9 3 10 12 17 17 14 20 24 18 23 24 25 18 14 15 15 10 4 3 13 14 9 6 11 6 4 8 13 18 21 22 25 29 31 21 27 35 31 27 27 24
18 32 22 21 14 9 21 18 22 28 29 32 29 33 37 37 19 21 17 29 28 23 19 25 30 28 31 32 31 24 10 2 19 16 9 13 10 12 16 15 18 14 15 20 18 13 12 11 13 10 9 11 12 13
16 10 15 20 20 53 62 55 54 51 47 45 35 50 48 30 35 38 36 29 20 26 32 32 43 34 35 45 40 31 21 12 19 24 20 18 12 12 14 16 14 10 12 13 8 7 9 13 17 18 18 20 20 19
13 16 13 9 20 38 31 39 29 27 34 35 40 34 30 27 22 23 32 34 28 29 44 44 41 39 33 29 26 24 19 17 14 26 21 21 14 15 14 10 10 11 11 11 11 11 13 16 16 16 19 22 22 20
32 38 36 31 23 15 8 7 9 16 23 24 35 42 35 33 22 26 24 21 22 22 26 38 39 35 33 31 26 20 25 24 19 19 28 25 23 21 18 16 15 14 14 14 13 11 10 8 8 8 9 11 10 6
Wind_Direction_500mb
347 347 347 348 350 351 351 350 351 351 352 350 348 348 346 346 342 337 340 263 257 261 276 285 268 285 305 291 143 239 21 327 64 133 168 238 195 271 48 209 200 184 165 222 154 236 290 163 141 176 208 169 185 205
342 343 344 344 345 347 347 347 348 350 351 349 347 345 343 342 342 331 324 286 273 263 260 280 281 284 278 262 260 198 196 185 217 116 189 136 297 357 160 248 333 237 183 190 170 215 229 191 214 223 205 190 203 208
338 339 340 341 342 342 343 343 344 346 347 348 347 344 340 340 341 329 325 317 278 292 299 286 304 294 302 267 243 233 224 194 185 170 166 180 214 137 193 242 218 269 185 203 92 259 222 202 201 214 226 246 211 215
333 334 336 338 339 339 339 340 341 342 344 346 346 343 339 336 341 333 335 321 305 308 287 298 310 308 279 262 222 239 244 203 188 200 179 163 184 190 208 217 184 216 174 209 245 265 287 262 242 242 228 224 223 213
328 330 332 334 335 336 336 336 337 339 342 345 345 340 335 332 340 349 34 60 221 323 291 295 321 334 331 234 250 241 230 219 195 178 155 221 220 149 280 171 241 190 213 175 241 259 223 259 271 253 227 228 231 217
323 326 327 330 332 333 334 334 335 337 340 343 343 336 330 329 337 16 119 82 27 340 300 334 316 352 357 294 273 224 232 228 214 194 208 218 228 170 227 262 286 316 303 271 251 271 252 256 257 214 221 225 227 214
319 322 324 327 329 331 332 333 333 335 338 342 343 331 326 318 346 11 80 48 339 328 294 313 313 1 21 28 6 3 346 347 331 14 262 246 222 183 185 332 337 343 341 328 285 265 243 220 221 222 225 219 223 224
316 320 322 325 327 329 330 331 332 334 336 341 343 329 328 350 334 6 48 337 320 333 272 338 308 357 343 330 313 269 240 246 216 260 242 230 13 51 46 332 342 351 1 356 349 283 249 248 230 215 204 218 226 228
314 318 320 323 326 328 328 329 331 333 336 341 346 354 34 70 18 309 300 297 282 233 10 62 134 256 285 291 260 253 237 263 274 236 231 91 4 54 301 331 343 357 356 350 1 2 336 287 230 211 203 211 215 213
312 315 318 319 322 327 327 328 331 333 337 345 350 349 167 292 315 310 297 109 99 129 207 232 222 229 265 265 273 291 204 248 303 258 63 76 99 260 328 341 340 348 5 355 6 354 356 355 325 287 247 222 214 221
309 314 319 323 324 325 325 327 330 334 340 349 341 313 316 341 7 6 201 186 152 107 235 259 276 268 310 197 232 273 268 309 311 302 52 69 352 351 340 338 337 327 345 352 356 340 347 324 345 29 319 225 221 224
304 311 315 322 325 323 320 323 329 334 336 327 308 293 315 343 329 355 308 57 46 259 266 259 321 318 307 266 30 13 342 310 241 47 83 358 294 340 337 335 333 334 339 337 346 341 337 338 340 360 29 349 246 237
303 307 311 319 321 317 318 321 327 326 331 334 321 300 303 292 20 9 31 319 317 290 318 330 327 326 37 26 57 37 22 357 63 29 23 252 322 330 329 335 330 335 338 329 334 335 336 330 330 309 327 5 311 246
297 301 306 315 316 313 318 319 327 327 330 303 289 309 181 302 239 187 191 218 296 337 342 340 321 44 14 53 12 23 344 31 30 15 306 321 334 335 337 335 337 334 335 328 325 333 331 322 312 324 278 293 321 7
300 301 306 313 309 312 317 318 319 314 247 256 262 248 241 317 116 115 40 33 36 2 350 331 36 53 16 60 37 25 18 26 359 269 293 333 344 342 340 339 338 336 333 328 329 326 323 316 302 291 290 252 267 297
308 305 312 315 313 308 318 316 325 310 231 241 238 273 280 67 7 359 66 58 18 9 3 27 52 59 25 59 55 35 33 288 265 305 340 346 347 348 345 343 338 332 334 337 339 332 339 316 290 284 274 284 232 258
311 320 320 316 308 314 325 314 253 229 238 239 242 269 268 224 328 93 74 46 21 36 25 36 52 112 104 53 68 135 195 240 331 339 353 355 356 350 347 345 345 349 339 344 342 347 4 32 36 32 5 52 199 264
307 318 328 323 313 328 331 238 250 250 253 252 258 321 16 223 20 149 90 53 61 77 51 114 101 51 94 138 287 256 317 298 335 359 359 354 351 359 356 354 349 351 355 2 18 32 26 31 32 28 30 22 353 341
308 315 326 317 334 334 315 275 245 264 267 296 306 319 316 28 93 126 101 78 85 91 116 75 71 95 279 215 254 287 288 334 352 8 358 356 1 359 359 360 1 12 20 15 15 29 43 46 39 41 45 27 45 42
314 317 305 290 318 306 292 280 259 262 270 273 303 313 339 300 165 143 115 94 119 87 81 91 190 231 246 245 256 275 353 1 14 0 359 2 4 3 4 2 11 19 22 25 41 57 61 61 60 55 59 53 57 62
332 297 323 309 291 252 269 287 267 263 299 288 291 315 299 178 153 150 143 134 85 83 119 162 279 285 297 211 235 355 11 36 26 14 10 4 11 11 10 12 18 26 25 30 36 47 61 58 58 65 67 70 73 70
335 330 327 346 269 258 263 245 255 305 290 272 287 229 242 162 158 170 155 115 116 149 148 189 211 257 179 190 157 9 26 27 11 7 19 19 17 18 25 28 35 34 37 40 45 45 47 49 49 50 59 62 58 57
328 329 306 247 268 252 264 265 249 247 237 250 260 281 86 86 154 158 129 139 155 162 114 109 326 291 184 159 145 40 14 30 51 27 25 36 45 43 43 44 49 46 51 52 56 61 63 64 67 74 80 83 83 82
288 264 259 258 229 268 285 254 224 256 237 229 233 238 174 156 170 177 174 171 169 167 169 111 138 143 154 157 123 32 30 86 65 33 26 46 57 52 48 51 56 60 62 61 60 62 67 71 75 79 81 82 83 82
282 241 230 253 252 253 250 245 224 251 242 260 333 262 164 145 114 194 190 177 176 183 186 176 158 177 185 165 115 33 51 72 68 42 49 40 64 64 60 66 70 64 63 63 65 68 67 66 69 75 79 80 81 81
269 236 209 237 216 210 238 318 24 29 275 278 245 163 136 131 195 230 203 178 188 195 192 189 181 181 168 182 56 21 49 88 94 83 82 72 63 73 79 79 73 64 63 67 79 82 82 82 84 83 83 80 78 78
249 258 240 244 273 301 300 295 289 269 301 297 266 121 149 234 217 197 157 177 195 192 209 199 193 198 190 178 103 59 93 104 100 101 91 82 77 72 77 75 80 84 86 88 81 77 78 81 83 83 82 78 73 77
235 258 250 303 323 316 315 300 253 242 273 27 350 227 235 235 206 178 194 207 218 219 222 195 197 197 199 173 142 131 103 109 125 110 90 85 97 71 77 84 83 86 86 78 73 66 52 54 78 74 72 90 98 91
232 232 275 286 299 288 280 244 241 239 300 328 163 279 310 309 265 206 220 215 215 223 201 191 183 196 196 167 169 182 151 158 157 159 161 189 236 207 154 89 83 89 86 84 84 85 64 90 112 112 112 104 100 94
243 234 236 245 241 246 215 239 277 285 296 298 303 304 267 263 280 275 243 213 217 226 213 221 204 195 199 196 182 175 206 161 144 114 101 143 118 113 124 118 97 99 128 105 116 106 82 89 120 96 81 66 67 84
255 240 228 239 252 256 263 267 267 275 283 275 262 274 269 272 276 243 241 242 246 220 217 206 193 196 199 206 209 207 191 176 180 185 170 158 169 151 124 129 129 124 118 125 118 81 72 75 75 77 73 72 78 91
226 225 209 224 261 280 291 251 258 245 257 255 267 270 259 246 227 232 230 232 242 222 218 211 204 201 211 221 225 237 244 238 222 188 181 181 177 163 155 146 147 159 152 147 135 116 107 110 106 96 91 90 92 92
239 243 251 266 285 288 289 304 286 272 264 259 262 264 262 244 233 251 249 236 241 230 221 223 222 224 224 223 226 239 238 225 207 205 205 198 190 178 176 165 149 142 137 137 140 142 140 140 128 114 104 101 107 117
Wind_Speed_850mb
54 56 60 62 65 67 68 67 68 69 68 69 74 76 78 70 57 43 26 16 14 15 43 47 13 17 38 12 7 4 6 5 6 4 6 8 4 4 4 2 6 9 7 7 1 2 12 19 24 15 15 21 35 26
53 56 59 62 65 67 68 68 70 73 73 70 74 76 78 71 57 45 30 16 26 31 38 48 54 49 40 38 28 15 9 9 13 6 3 3 2 2 8 5 3 4 14 9 14 12 11 26 28 35 31 31 33 29
52 55 58 62 65 68 70 71 74 78 77 73 77 76 76 64 57 44 31 19 15 18 43 21 12 11 23 33 51 22 8 8 8 4 12 6 5 7 4 9 7 7 11 7 4 9 14 19 20 23 30 36 26 32
54 56 58 61 64 67 70 72 77 81 82 75 78 77 70 54 50 35 25 11 11 10 8 14 29 46 28 15 27 39 34 23 14 10 4 5 5 13 8 10 9 11 6 10 10 11 25 34 39 38 46 40 38 33
55 57 60 60 63 67 70 73 78 84 86 81 78 77 62 44 39 20 12 4 1 7 8 28 47 31 20 19 28 37 34 28 17 8 4 7 8 2 6 2 7 12 12 8 13 26 28 46 53 35 50 48 49 48
55 57 60 62 63 68 71 74 80 85 89 86 78 72 48 33 26 4 5 7 9 13 11 8 35 41 31 18 22 39 36 33 32 17 13 13 20 13 2 4 7 25 55 44 32 51 49 43 35 41 42 48 47 57
54 56 58 60 63 68 73 76 81 88 91 89 79 56 35 20 12 6 4 3 10 16 8 12 17 14 45 39 37 35 41 21 25 5 15 18 15 16 5 6 52 50 63 68 67 56 28 34 43 50 39 39 45 48
53 53 55 58 63 68 73 77 81 88 91 93 75 42 20 1 5 5 1 6 16 17 5 2 8 24 40 11 10 11 19 9 12 17 14 7 1 14 7 39 58 57 71 73 68 36 39 34 38 33 34 31 51 59
53 53 54 58 62 66 71 76 80 87 90 94 62 21 7 3 6 9 31 31 20 9 4 3 4 5 16 8 9 8 7 5 8 6 8 8 11 9 16 45 53 59 41 55 62 40 21 20 29 40 45 39 48 51
54 55 58 61 62 64 69 74 79 82 89 86 46 14 3 8 38 18 1 2 4 3 3 7 9 8 12 9 7 6 6 4 4 6 5 9 3 10 23 46 48 53 61 54 61 66 62 56 33 23 46 42 41 40
56 56 59 61 61 61 65 70 73 77 85 71 41 13 36 27 8 3 0 6 7 0 7 9 17 11 28 7 6 1 3 2 4 6 7 1 2 26 54 54 59 52 51 58 50 42 41 36 37 28 16 47 38 39
57 58 60 61 61 61 62 64 61 68 66 69 48 42 22 9 5 3 4 3 6 2 7 7 28 45 13 4 6 11 4 3 3 14 5 5 6 47 56 62 61 58 55 47 54 58 53 55 38 31 31 16 38 34
57 60 62 60 63 63 57 53 54 63 68 47 9 8 5 4 8 5 6 7 5 7 13 34 24 19 3 10 10 7 12 8 6 5 2 5 34 53 64 66 62 56 57 52 63 62 60 56 43 29 26 27 9 36
65 66 65 59 61 58 51 57 56 60 44 8 6 11 6 7 1 4 5 6 7 13 27 36 23 12 14 9 9 7 4 6 6 8 6 8 52 61 64 57 59 61 57 61 63 66 51 45 42 31 27 17 21 16
54 59 59 56 54 56 56 59 51 43 9 8 7 6 7 7 9 5 6 10 10 22 34 22 8 13 12 9 7 7 11 8 5 6 8 43 44 61 65 66 65 65 65 57 52 57 54 49 42 36 24 48 38 27
55 57 52 50 58 61 52 52 34 5 5 7 11 8 9 9 12 10 12 15 21 30 18 12 9 8 9 4 7 7 4 4 7 10 39 38 60 59 61 62 66 62 62 56 57 49 54 36 32 28 28 25 33 16
48 47 50 49 56 52 42 30 3 7 8 9 12 15 36 6 2 8 9 11 22 16 5 8 8 1 3 5 4 5 6 6 19 32 30 43 44 55 60 66 74 68 63 43 62 41 40 37 26 12 9 4 16 19
52 48 49 41 47 47 21 3 5 8 10 14 10 9 2 2 5 8 9 16 10 6 4 5 4 7 2 3 6 5 15 8 23 20 28 38 45 55 59 69 70 64 64 70 51 26 36 41 40 33 30 12 13 10
53 53 43 19 24 30 11 4 7 8 11 17 18 14 9 4 6 16 18 17 18 16 18 7 7 2 3 3 7 7 7 18 18 19 30 39 46 51 54 60 64 58 60 63 68 37 27 39 38 36 40 18 14 18
41 37 13 10 18 10 9 12 7 10 9 7 19 10 12 11 21 22 16 14 13 8 8 4 7 4 5 7 11 6 12 14 14 23 38 44 46 47 48 52 54 55 58 61 66 55 34 40 41 36 43 42 37 35
32 10 19 11 13 12 11 9 10 11 16 11 17 15 17 8 29 19 15 10 7 4 5 3 1 5 12 13 4 7 16 8 12 22 31 38 39 42 43 50 48 54 55 55 56 60 54 50 40 35 33 35 31 28
20 19 20 4 6 8 13 13 13 22 13 15 17 11 10 14 17 15 12 5 7 7 7 2 6 8 17 10 5 7 13 7 10 15 26 26 35 40 43 48 52 54 56 50 46 45 42 38 38 34 33 33 30 30
13 13 11 7 8 8 14 13 9 9 6 7 4 4 3 6 8 21 5 7 9 12 7 5 10 9 20 14 5 8 15 14 11 18 24 19 25 30 36 42 47 54 60 61 55 54 53 49 45 45 47 50 51 55
16 8 6 6 10 10 11 9 13 11 8 6 4 3 6 12 22 7 4 10 16 17 14 6 6 27 24 20 7 10 11 11 13 20 18 16 25 31 37 37 39 41 48 52 60 60 58 58 57 59 61 64 65 66
8 9 7 11 9 9 8 8 10 6 6 3 6 8 4 8 3 3 7 17 24 20 16 14 15 11 17 15 4 11 11 11 11 11 16 16 18 21 30 33 39 43 43 43 45 46 50 57 63 65 69 71 71 70
4 9 13 9 11 11 8 5 6 9 8 4 6 4 6 6 4 5 7 27 28 26 27 21 17 12 17 5 4 8 3 3 14 25 30 31 34 36 28 28 31 35 34 34 36 42 43 44 48 49 51 54 54 57
7 11 16 18 16 22 13 12 9 8 6 4 2 2 4 5 6 6 16 20 20 22 19 18 17 16 11 9 4 9 13 20 23 26 31 36 36 42 46 45 43 39 35 43 46 47 50 53 53 50 48 47 43 36
16 12 10 19 22 21 11 9 4 4 2 8 16 3 4 4 8 14 15 21 18 18 15 13 12 15 9 9 6 7 11 13 14 12 10 10 9 13 24 32 36 36 32 29 26 26 23 19 26 32 33 38 37 29
14 18 19 26 24 11 8 9 8 6 19 20 9 3 10 12 17 17 14 20 24 18 23 24 25 18 14 15 15 10 4 3 13 14 9 6 11 6 4 8 13 18 21 22 25 29 31 21 27 35 31 27 27 24
18 32 22 21 14 9 21 18 22 28 29 32 29 33 37 37 19 21 17 29 28 23 19 25 30 28 31 32 31 24 10 2 19 16 9 13 10 12 16 15 18 14 15 20 18 13 12 11 13 10 9 11 12 13
16 10 15 20 20 53 62 55 54 51 47 45 35 50 48 30 35 38 36 29 20 26 32 32 43 34 35 45 40 31 21 12 19 24 20 18 12 12 14 16 14 10 12 13 8 7 9 13 17 18 18 20 20 19
13 16 13 9 20 38 31 39 29 27 34 35 40 34 30 27 22 23 32 34 28 29 44 44 41 39 33 29 26 24 19 17 14 26 21 21 14 15 14 10 10 11 11 11 11 11 13 16 16 16 19 22 22 20
32 38 36 31 23 15 8 7 9 16 23 24 35 42 35 33 22 26 24 21 22 22 26 38 39 35 33 31 26 20 25 24 19 19 28 25 23 21 18 16 15 14 14 14 13 11 10 8 8 8 9 11 10 6
Wind_Direction_850mb
347 347 347 348 350 351 351 350 351 351 352 350 348 348 346 346 342 337 340 263 257 261 276 285 268 285 305 291 143 239 21 327 64 133 168 238 195 271 48 209 200 184 165 222 154 236 290 163 141 176 208 169 185 205
342 343 344 344 345 347 347 347 348 350 351 349 347 345 343 342 342 331 324 286 273 263 260 280 281 284 278 262 260 198 196 185 217 116 189 136 297 357 160 248 333 237 183 190 170 215 229 191 214 223 205 190 203 208
338 339 340 341 342 342 343 343 344 346 347 348 347 344 340 340 341 329 325 317 278 292 299 286 304 294 302 267 243 233 224 194 185 170 166 180 214 137 193 242 218 269 185 203 92 259 222 202 201 214 226 246 211 215
333 334 336 338 339 339 339 340 341 342 344 346 346 343 339 336 341 333 335 321 305 308 287 298 310 308 279 262 222 239 244 203 188 200 179 163 184 190 208 217 184 216 174 209 245 265 287 262 242 242 228 224 223 213
328 330 332 334 335 336 336 336 337 339 342 345 345 340 335 332 340 349 34 60 221 323 291 295 321 334 331 234 250 241 230 219 195 178 155 221 220 149 280 171 241 190 213 175 241 259 223 259 271 253 227 228 231 217
323 326 327 330 332 333 334 334 335 337 340 343 343 336 330 329 337 16 119 82 27 340 300 334 316 352 357 294 273 224 232 228 214 194 208 218 228 170 227 262 286 316 303 271 251 271 252 256 257 214 221 225 227 214
319 322 324 327 329 331 332 333 333 335 338 342 343 331 326 318 346 11 80 48 339 328 294 313 313 1 21 28 6 3 346 347 331 14 262 246 222 183 185 332 337 343 341 328 285 265 243 220 221 222 225 219 223 224
316 320 322 325 327 329 330 331 332 334 336 341 343 329 328 350 334 6 48 337 320 333 272 338 308 357 343 330 313 269 240 246 216 260 242 230 13 51 46 332 342 351 1 356 349 283 249 248 230 215 204 218 226 228
314 318 320 323 326 328 328 329 331 333 336 341 346 354 34 70 18 309 300 297 282 233 10 62 134 256 285 291 260 253 237 263 274 236 231 91 4 54 301 331 343 357 356 350 1 2 336 287 230 211 203 211 215 213
312 315 318 319 322 327 327 328 331 333 337 345 350 349 167 292 315 310 297 109 99 129 207 232 222 229 265 265 273 291 204 248 303 258 63 76 99 260 328 341 340 348 5 355 6 354 356 355 325 287 247 222 214 221
309 314 319 323 324 325 325 327 330 334 340 349 341 313 316 341 7 6 201 186 152 107 235 259 276 268 310 197 232 273 268 309 311 302 52 69 352 351 340 338 337 327 345 352 356 340 347 324 345 29 319 225 221 224
304 311 315 322 325 323 320 323 329 334 336 327 308 293 315 343 329 355 308 57 46 259 266 259 321 318 307 266 30 13 342 310 241 47 83 358 294 340 337 335 333 334 339 337 346 341 337 338 340 360 29 349 246 237
303 307 311 319 321 317 318 321 327 326 331 334 321 300 303 292 20 9 31 319 317 290 318 330 327 326 37 26 57 37 22 357 63 29 23 252 322 330 329 335 330 335 338 329 334 335 336 330 330 309 327 5 311 246
297 301 306 315 316 313 318 319 327 327 330 303 289 309 181 302 239 187 191 218 296 337 342 340 321 44 14 53 12 23 344 31 30 15 306 321 334 335 337 335 337 334 335 328 325 333 331 322 312 324 278 293 321 7
300 301 306 313 309 312 317 318 319 314 247 256 262 248 241 317 116 115 40 33 36 2 350 331 36 53 16 60 37 25 18 26 359 269 293 333 344 342 340 339 338 336 333 328 329 326 323 316 302 291 290 252 267 297
308 305 312 315 313 308 318 316 325 310 231 241 238 273 280 67 7 359 66 58 18 9 3 27 52 59 25 59 55 35 33 288 265 305 340 346 347 348 345 343 338 332 334 337 339 332 339 316 290 284 274 284 232 258
311 320 320 316 308 314 325 314 253 229 238 239 242 269 268 224 328 93 74 46 21 36 25 36 52 112 104 53 68 135 195 240 331 339 353 355 356 350 347 345 345 349 339 344 342 347 4 32 36 32 5 52 199 264
307 318 328 323 313 328 331 238 250 250 253 252 258 321 16 223 20 149 90 53 61 77 51 114 101 51 94 138 287 256 317 298 335 359 359 354 351 359 356 354 349 351 355 2 18 32 26 31 32 28 30 22 353 341
308 315 326 317 334 334 315 275 245 264 267 296 306 319 316 28 93 126 101 78 85 91 116 75 71 95 279 215 254 287 288 334 352 8 358 356 1 359 359 360 1 12 20 15 15 29 43 46 39 41 45 27 45 42
314 317 305 290 318 306 292 280 259 262 270 273 303 313 339 300 165 143 115 94 119 87 81 91 190 231 246 245 256 275 353 1 14 0 359 2 4 3 4 2 11 19 22 25 41 57 61 61 60 55 59 53 57 62
332 297 323 309 291 252 269 287 267 263 299 288 291 315 299 178 153 150 143 134 85 83 119 162 279 285 297 211 235 355 11 36 26 14 10 4 11 11 10 12 18 26 25 30 36 47 61 58 58 65 67 70 73 70
335 330 327 346 269 258 263 245 255 305 290 272 287 229 242 162 158 170 155 115 116 149 148 189 211 257 179 190 157 9 26 27 11 7 19 19 17 18 25 28 35 34 37 40 45 45 47 49 49 50 59 62 58 57
328 329 306 247 268 252 264 265 249 247 237 250 260 281 86 86 154 158 129 139 155 162 114 109 326 291 184 159 145 40 14 30 51 27 25 36 45 43 43 44 49 46 51 52 56 61 63 64 67 74 80 83 83 82
288 264 259 258 229 268 285 254 224 256 237 229 233 238 174 156 170 177 174 171 169 167 169 111 138 143 154 157 123 32 30 86 65 33 26 46 57 52 48 51 56 60 62 61 60 62 67 71 75 79 81 82 83 82
282 241 230 253 252 253 250 245 224 251 242 260 333 262 164 145 114 194 190 177 176 183 186 176 158 177 185 165 115 33 51 72 68 42 49 40 64 64 60 66 70 64 63 63 65 68 67 66 69 75 79 80 81 81
269 236 209 237 216 210 238 318 24 29 275 278 245 163 136 131 195 230 203 178 188 195 192 189 181 181 168 182 56 21 49 88 94 83 82 72 63 73 79 79 73 64 63 67 79 82 82 82 84 83 83 80 78 78
249 258 240 244 273 301 300 295 289 269 301 297 266 121 149 234 217 197 157 177 195 192 209 199 193 198 190 178 103 59 93 104 100 101 91 82 77 72 77 75 80 84 86 88 81 77 78 81 83 83 82 78 73 77
235 258 250 303 323 316 315 300 253 242 273 27 350 227 235 235 206 178 194 207 218 219 222 195 197 197 199 173 142 131 103 109 125 110 90 85 97 71 77 84 83 86 86 78 73 66 52 54 78 74 72 90 98 91
232 232 275 286 299 288 280 244 241 239 300 328 163 279 310 309 265 206 220 215 215 223 201 191 183 196 196 167 169 182 151 158 157 159 161 189 236 207 154 89 83 89 86 84 84 85 64 90 112 112 112 104 100 94
243 234 236 245 241 246 215 239 277 285 296 298 303 304 267 263 280 275 243 213 217 226 213 221 204 195 199 196 182 175 206 161 144 114 101 143 118 113 124 118 97 99 128 105 116 106 82 89 120 96 81 66 67 84
255 240 228 239 252 256 263 267 267 275 283 275 262 274 269 272 276 243 241 242 246 220 217 206 193 196 199 206 209 207 191 176 180 185 170 158 169 151 124 129 129 124 118 125 118 81 72 75 75 77 73 72 78 91
226 225 209 224 261 280 291 251 258 245 257 255 267 270 259 246 227 232 230 232 242 222 218 211 204 201 211 221 225 237 244 238 222 188 181 181 177 163 155 146 147 159 152 147 135 116 107 110 106 96 91 90 92 92
239 243 251 266 285 288 289 304 286 272 264 259 262 264 262 244 233 251 249 236 241 230 221 223 222 224 224 223 226 239 238 225 207 205 205 198 190 178 176 165 149 142 137 137 140 142 140 140 128 114 104 101 107 117